Location: Marcé
(47.5801°N, 0.3280°W)
Time: 21:47:14
(UTC+01:00)

Tiros 1 - Pass Details

Date: 08 December 2021
Orbit: 630 x 663 km, 48.4° (Epoch: 20 January)

Event Time Altitude Azimuth Distance (km) Brightness Sun altitude
Rises 23:10:52 0° 286° (WNW) 2,943 - -57.9°
Reaches altitude 10° 23:13:17 10° 280° (W) 2,038 - -58.2°
Maximum altitude 23:17:41 42° 210° (SSW) 928 - -58.7°
Drops below altitude 10° 23:22:08 10° 140° (SE) 2,051 - -59.2°
Sets 23:24:34 0° 133° (SE) 2,965 - -59.5°
